Location: Unspecified
(0.0000°N, 0.0000°E)
Time: 00:05:16
(UTC+00:00)

Tiros 1 - All Passes

Search period start: 26 January 2021 00:00
Search period end: 05 February 2021 00:00
Orbit: 630 x 663 km, 48.4° (Epoch: 25 January)

Date Brightness Start Highest point End Pass type
(mag) Time Alt. Az. Time Alt. Az. Time Alt. Az.
26 Jan - 01:18:48 10° N 01:22:45 27° NE 01:26:44 10° ESE night (unlit)
26 Jan - 03:01:07 10° WNW 03:04:46 22° SW 03:08:27 10° S visible
26 Jan - 13:31:16 10° SSW 13:35:53 51° SE 13:40:28 10° NE daylight
26 Jan - 15:15:55 10° WNW 15:17:56 13° NW 15:19:57 10° NNW daylight
27 Jan - 01:44:00 10° NW 01:48:39 86° SW 01:53:22 10° SE night (unlit)
27 Jan - 12:17:10 10° SSE 12:19:43 14° SE 12:22:15 10° E daylight
27 Jan - 13:57:14 10° SW 14:01:48 46° NW 14:06:18 10° NNE daylight
28 Jan - 00:28:49 10° N 00:32:35 24° NE 00:36:22 10° ESE night (unlit)
28 Jan - 02:10:45 10° WNW 02:14:35 25° SW 02:18:28 10° S night (unlit)
28 Jan - 12:41:09 10° SSW 12:45:43 45° SE 12:50:14 10° ENE daylight
28 Jan - 14:25:12 10° W 14:27:45 14° NW 14:30:18 10° NNW daylight
29 Jan - 00:53:51 10° NW 00:58:30 83° NE 01:03:11 10° SE night (unlit)
29 Jan - 11:27:28 10° SSE 11:29:32 13° SE 11:31:34 10° ESE daylight
29 Jan - 13:06:58 10° SW 13:11:37 52° NW 13:16:13 10° NNE daylight
29 Jan - 23:38:53 10° N 23:42:24 21° NE 23:45:57 10° E night (unlit)
30 Jan - 01:20:25 10° WNW 01:24:25 28° SW 01:28:27 10° S night (unlit)
30 Jan - 11:51:04 10° SSW 11:55:32 39° SE 11:59:58 10° ENE daylight
30 Jan - 13:34:35 10° W 13:37:34 16° NW 13:40:31 10° NNW daylight
31 Jan - 00:03:43 10° NNW 00:08:19 73° NE 00:12:59 10° SE night (unlit)
31 Jan - 10:38:00 10° SSE 10:39:20 11° SE 10:40:39 10° ESE daylight
31 Jan - 12:16:44 10° SW 12:21:27 60° NW 12:26:06 10° NNE daylight
31 Jan - 22:48:59 10° N 22:52:14 19° NE 22:55:31 10° E night (unlit)
01 Feb - 00:30:07 10° WNW 00:34:15 32° SW 00:38:25 10° SSE night (unlit)
01 Feb - 11:00:59 10° SSW 11:05:21 35° SE 11:09:41 10° ENE daylight
01 Feb - 12:44:04 10° W 12:47:22 19° NW 12:50:41 10° N daylight
01 Feb - 23:13:36 10° NNW 23:18:10 63° NE 23:22:46 10° SE night (unlit)
02 Feb - 11:26:30 10° SW 11:31:16 69° NW 11:36:00 10° NNE daylight
02 Feb - 21:59:08 10° N 22:02:04 17° NE 22:05:01 10° E night (unlit)
02 Feb - 23:39:50 10° WNW 23:44:05 36° SW 23:48:22 10° SSE night (unlit)
03 Feb - 10:10:56 10° S 10:15:10 31° SE 10:19:22 10° ENE daylight
03 Feb - 11:53:36 10° W 11:57:12 21° NW 12:00:46 10° N daylight
03 Feb - 22:23:30 10° NNW 22:28:00 55° NE 22:32:32 10° SE night (unlit)
04 Feb - 00:08:37 10° WSW 00:10:05 11° SW 00:11:34 10° SSW night (unlit)
04 Feb - 10:36:17 10° SW 10:41:05 79° NW 10:45:51 10° NE daylight
04 Feb - 21:09:20 10° NNE 21:11:54 15° NE 21:14:27 10° E night (unlit)
04 Feb - 22:49:33 10° WNW 22:53:54 41° SW 22:58:18 10° SSE night (unlit)
